Home > Weather > Orange > Past weeks

Flag for USA Past Weather in Orange, California, USA — Yesterday and Last 2 Weeks

Now
59 °F

Scattered clouds.


Feels Like: 59 °F
Forecast: 55 / 67 °F
Wind: No wind

Location: John Wayne Airport-Orange County Airport

Current Time: May 25, 2016 at 8:10:04 AM

Latest Report: May 25, 2016 at 6:53 AM


Visibility: 10 mi

Pressure: 30.06 "Hg

Humidity: 75%

Dew Point: 51 °F

Location of OrangeLocation

Past Weather in Orange — Graph

°F

Orange Temperature Yesterday

Maximum temperature yesterday: 69 °F (at 12:53 PM)
Minimum temperature yesterday: 59 °F (at 5:53 AM)
Average temperature yesterday: 63 °F

High & Low Weather Summary for the Past Weeks

 TemperatureHumidityPressure
High72 °F (May 13, 1:53 PM)87% (May 12, 4:53 AM)30.06 "Hg (May 12, 4:53 AM)
Low56 °F (May 22, 4:53 AM)41% (May 22, 1:53 PM)29.83 "Hg (May 20, 4:53 AM)
Average63 °F70%29.96 "Hg
* Reported May 10 5:53 AM — May 25 5:53 AM, Orange, Weather by CustomWeather, © 2016

Note: Actual official high and low records may vary slightly from our data, if they occured in-between our weather recording intervals... More about our weather records

Advertising

Orange Weather History for the Previous 24 Hours

Scroll right to see more
 ConditionsComfort  
Time TempWeatherWind HumidityBarometerVisibility
5:53 AM
Wed, May 25
56 °FPassing clouds.3 mph77%30.05 "Hg10 mi
4:53 AM56 °FClear.3 mph77%30.04 "Hg10 mi
3:53 AM58 °FClear.3 mph75%30.03 "Hg10 mi
2:53 AM58 °FClear.No wind75%30.03 "Hg10 mi
1:53 AM59 °FClear.No wind72%30.04 "Hg10 mi
12:53 AM60 °FClear.No wind69%30.05 "Hg10 mi
11:53 PM
Tue, May 24
60 °FPassing clouds.3 mph72%30.06 "Hg10 mi
10:53 PM60 °FPartly cloudy.6 mph69%30.06 "Hg10 mi
9:53 PM61 °FPartly cloudy.6 mph70%30.05 "Hg10 mi
8:53 PM61 °FPassing clouds.6 mph70%30.04 "Hg10 mi
7:53 PM61 °FScattered clouds.7 mph70%30.03 "Hg10 mi
6:53 PM63 °FBroken clouds.9 mph68%30.02 "Hg10 mi
5:53 PM64 °FPassing clouds.9 mph65%30.02 "Hg10 mi
4:53 PM66 °FBroken clouds.12 mph61%30.02 "Hg10 mi
3:53 PM66 °FBroken clouds.15 mph61%30.01 "Hg10 mi
2:53 PM68 °FScattered clouds.10 mph53%30.01 "Hg10 mi
1:53 PM68 °FScattered clouds.10 mph53%30.01 "Hg10 mi
12:53 PM69 °FScattered clouds.12 mph49%30.01 "Hg10 mi
11:53 AM66 °FScattered clouds.10 mph54%30.01 "Hg10 mi
10:53 AM66 °FPartly sunny.13 mph54%30.00 "Hg10 mi
9:53 AM65 °FPartly sunny.8 mph54%29.99 "Hg10 mi
8:53 AM63 °FBroken clouds.6 mph65%29.98 "Hg10 mi
Weather by CustomWeather, © 2016

See weather overviewHow to use our weather pages